World > North America > United States > Iowa

Koszta, Iowa Regional Weather

Lat: 41.83N, Lon: 92.2W
Wx Zone: IAZ051Web Search

Helpful Tip: Abbreviated, 7 Day, 14 Day Forecasts. There is a weather forecast for every taste.

Feedback


°F Click to change Koszta hourly weather to Imperial units.Click to change Koszta hourly weather to Metric units. °C
Koszta Weather Map
UTC Time: 5/18/2021, 01:47
Your Time:

Koszta, IA Regional Weather

Expires:202105180200;;284123
ASUS43 KDMX 180106
RWRIA 

WEATHER ROUNDUP FOR IOWA
NATIONAL WEATHER SERVICE DES MOINES IA
800 PM CDT MON MAY 17 2021

NOTE: "FAIR" INDICATES FEW OR NO CLOUDS BELOW 12,000 FEET WITH NO
SIGNIFICANT WEATHER AND/OR OBSTRUCTIONS TO VISIBILITY.

* - THESE STATIONS ARE NOT NWS STATIONS...THUS NOT UNDER NWS
QUALITY CONTROL.  THEY ALSO DO NOT REPORT WEATHER SUCH 
AS PRECIPITATION OR FOG.  


IAZ007>011-017>019-026>030-037>042-050>054-066-180200-
   NORTHEAST IOWA
  
CITY           SKY/WX    TMP DP  RH WIND       PRES   REMARKS
CEDAR RAPIDS   CLOUDY    62  57  83 E13       30.08S                  
CHARLES CITY * FAIR      68  52  56 SE13      30.10R                  
CLINTON *      CLOUDY    63  60  90 E14       30.13R                  
DECORAH *        N/A     68  54  60 SE8G14    30.10S                  
DUBUQUE        CLOUDY    64  53  67 SE9G20    30.12F                  
MONTICELLO *   CLOUDY    64  59  82 E12       30.11S                  
OELWEIN *      CLOUDY    66  54  63 SE16      30.11R                  
WATERLOO       CLOUDY    67  54  63 SE13G24   30.09R                  
$$
 

SKY/WX - Weather  TMP - Temperature  DP - Dew Point  RH - Relative Humidity
WIND - Wind Direction/Speed PRES - Barometric Pressure VSB - Visibility
WCI - Wind Chill Index E13G22 Wind - East Wind 13 mph/Gusts of 22 mph